一网星座-0704 (ONEWEB-0704)

导读 | 豆包AI

ONEWEB-0704是OneWeb低地球轨道卫星星座的卫星,于2024年10月20日,由SpaceX猎鹰9号火箭自美国范登堡太空军事基地发射,属于OneWeb星座的备用卫星,旨在增强低轨宽带网络弹性。OneWeb星座目标是为全球提供互联网连接服务,这批卫星由空中客车美国空间与防务公司建造。该卫星入役后,OneWeb在轨卫星规模达到600余颗,支撑其全球宽带服务部署,当前与Starlink等抢占企业及卫星互联网市场。

Basic Information
目录编号:
61609
目录名称:
ONEWEB-0704
国际标识:
2024-188R
轨道中心:
EARTH
卫星名称:
一网星座-0704
卫星全名:
一网星座-0704 (ONEWEB-0704)
卫星状态:
在轨 (已飞行510 天)
发射日期:
2024-10-20 UTC
国别 :
英国 (GB)
星等 :
--
Orbit Information
数据来源 国际轨道数据 AOE轨道数据
星历时间 2026-03-14T06:16:20+0800
13小时前
查看轨道信息
2026-03-13T15:00:00+0800
1天前
查看轨道信息
半长轴 7599.844km 7599.829km
偏心率 0.0002816 0.000145
轨道倾角 87.880° 87.881°
近地点辐角 78.202° 31.890°
升交点赤经 55.204° 55.333°
平近点角 281.942° 208.125°
近地点 1219.566km 1220.59km
远地点 1223.848km 1222.794km
周期 109.892分钟 109.892分钟
每日圈数 13.103755 13.103794
Detailed Information
卫星平台:
0704
平衡模式:
三轴稳定
覆盖范围:
全球
运营商:
一网卫星公司
运营商所在国:
英国
制造商(研发单位):
空客防务与航天公司
制造商所在国:
法国大都会
使用方式:
暂无
Satellite Introduction
OneWeb 计划是一项全球卫星互联网项目,旨在通过发射低轨道卫星,为全球偏远和无法接入互联网的地区提供高速网络连接。OneWeb 的目标是打造一个由数百颗卫星组成的网络,帮助缩小全球数字鸿沟,推动教育、医疗和经济发展。
2D Orbit Map
3D Orbit Map
Orbit Altitude Analysis Chart
Orbit Inclination Analysis Chart
Orbit Comprehensive Analysis Chart
View Comprehensive Chart